Location: Benque
(43.2594°N, 0.9178°E)
Time: 17:57:48
(UTC+00:00)

Cosmos 2219 Rocket - Pass Details

Date: 24 January 2020
Orbit: 827 x 848 km, 71.0° (Epoch: 22 February)

Event Time Altitude Azimuth Distance (km) Brightness Sun altitude
Rises 17:44:50 0° 325° (NW) 3,417 5.6 -8.9°
Reaches altitude 10° 17:47:34 10° 315° (NW) 2,476 5.0 -9.4°
Maximum altitude 17:52:23 30° 257° (WSW) 1,486 4.4 -10.2°
Drops below altitude 10° 17:57:12 10° 198° (SSW) 2,452 5.1 -11.1°
Sets 17:59:53 0° 188° (S) 3,378 5.7 -11.5°
